Location: Maddington
(51.2000°N, 1.9167°W)
Time: 15:14:26
(UTC+00:00)

Cosmos 1833 Rocket - Pass Details

Date: 18 September 2020
Orbit: 831 x 841 km, 71.0° (Epoch: 27 October)

Event Time Altitude Azimuth Distance (km) Brightness Sun altitude
Rises 21:41:38 0° 328° (NNW) 3,408 7.0 -29.6°
Reaches altitude 10° 21:44:06 10° 327° (NNW) 2,470 6.0 -29.9°
Enters shadow 21:49:08 64° 285° (WNW) 931 2.9 -30.4°
